Showing default

BRO-9, 56185

Orbit data source: Space-Track

BRO-9, 56185 is a payload satellite owned by Unseen Labs (FR) in SSO that was launched on Sat, 15 Apr 2023 UTC via an FALCON 9 launch vehicle from the Air Force Western Test Range (AFWTR). Payload-class satellites include a variety of spacecraft equipped with specific instruments for various scientific and technological missions. These include communications satellites like Starlink; space stations such as the ISS; scientific satellites like the Hubble; Earth observation satellites from companies like Planet Labs, Umbra, and HawkEye 360; GPS; miniature CubeSats for education and research; and military/defense satellites.

Not visible in the next 10 days
Identifier
56185, 2023-054H
Orbit
SSO
Country
Flag of FRFR
Related business
Manufacturer
GOMSpace
Mission
Operational Commercial Sigint
Bus & Motor
CUBESAT 6U, Unknown motor
Mass
10 kg wet, ~10 kg dry
Launch date (UTC)
2023-04-15 (3 years ago)
Launch vehicle
FALCON 9
Launch site
Air Force Western Test Range (AFWTR)
Object type
Payload
Rocket body
Debris
Shape & HBR
Box, 0.1 m
Radar Cross Section
0.080 m², Medium (>0.1 m² and < 1m²)

Expand to show TLE details & history
Last TLE update: 10 hours ago

TLE from 10 hours ago
0 BRO-9
1 56185U 23054H   26133.22036700  .00161679  00000-0  80235-3 0  9995
2 56185  97.2982  49.1631 0007791 126.0600 234.1391 15.81498417173537
Epoch: 2026-05-13T05:17Z
TLE epoch observation values (Epoch: 2026-05-13T05:17:19.708Z)
Latitude
-0.00008°
Longitude
98.84748°
Altitude
332.442 km
Speed
7.707 km/s
True Right ascension
03h 16m 39s
True Declination
0° 00' 00"
Sunlit
Object was in daylight at epoch
Visualization orbit readout
Latitude
Unknown
Longitude
Unknown
Altitude
Unknown
Speed
Unknown
Apparent Right ascension
Unknown
Apparent Declination
Unknown
Sunlit
N/A
Visualization observer readout
Local Sidereal Time
23:16:53
Azimuth
Unknown
Elevation
Unknown
Doppler factor
Unknown
Orbital elements
Apogee altitude
328.303 km
Perigee altitude
317.861 km
Semi-major axis
6,701.219 km
Eccentricity
0.00078
Inclination
97.2982°
RAAN
49.1631°
Arg. of periapsis
126.06°
True anomaly
234.06679°
Mean anomaly
234.1391°
Eccentric anomaly
234.10294°
Mean motion
3.95651 °/min
Orbital period
90.99 mins
BSTAR
0.00080235
Loading maneuver chart data...
Computing Atmospheric mass density...
Loading historical data...
Loading historical data...
Loading historical data...
Loading historical data...
Loading historical data...
Loading historical data...
Loading historical data...

Documentation

Showing up to 5 results
|